date,time,SUV Intensity [MED/Hr],UV Index,Daily total [MED],Since Last [MED]
11/11/2022,00:02:31,0.000,0.0,0.0,0.0
11/11/2022,00:03:31,0.000,0.0,0.0,0.0
11/11/2022,00:04:32,0.000,0.0,0.0,0.0
11/11/2022,00:05:32,0.000,0.0,0.0,0.0
11/11/2022,00:06:31,0.000,0.0,0.0,0.0
11/11/2022,00:07:32,0.000,0.0,0.0,0.0
11/11/2022,00:08:31,0.001,0.0,0.0,0.0
11/11/2022,00:09:31,0.000,0.0,0.0,0.0
11/11/2022,00:10:32,0.000,0.0,0.0,0.0
11/11/2022,00:11:32,0.001,0.0,0.0,0.0
11/11/2022,00:12:32,0.000,0.0,0.0,0.0
11/11/2022,00:13:32,0.000,0.0,0.0,0.0
11/11/2022,00:14:32,0.000,0.0,0.0,0.0
11/11/2022,00:15:32,0.001,0.0,0.0,0.0
11/11/2022,00:16:32,-0.000,0.0,0.0,0.0
11/11/2022,00:17:32,-0.000,0.0,0.0,0.0
11/11/2022,00:18:31,0.000,0.0,0.0,0.0
11/11/2022,00:19:32,0.000,0.0,0.0,0.0
11/11/2022,00:20:32,0.000,0.0,0.0,0.0
11/11/2022,00:21:32,0.000,0.0,0.0,0.0
11/11/2022,00:22:32,0.000,0.0,0.0,0.0
11/11/2022,00:23:32,0.000,0.0,0.0,0.0
11/11/2022,00:24:32,-0.000,0.0,0.0,0.0
11/11/2022,00:25:32,0.000,0.0,0.0,0.0
11/11/2022,00:26:31,0.000,0.0,0.0,0.0
11/11/2022,00:27:32,0.001,0.0,0.0,0.0
11/11/2022,00:28:32,0.000,0.0,0.0,0.0
11/11/2022,00:29:31,0.000,0.0,0.0,0.0
11/11/2022,00:30:31,-0.000,0.0,0.0,0.0
11/11/2022,00:31:32,0.000,0.0,0.0,0.0
11/11/2022,00:32:32,0.000,0.0,0.0,0.0
11/11/2022,00:33:32,0.001,0.0,0.0,0.0
11/11/2022,00:34:31,0.000,0.0,0.0,0.0
11/11/2022,00:35:32,0.000,0.0,0.0,0.0
11/11/2022,00:36:32,0.000,0.0,0.0,0.0
11/11/2022,00:37:32,0.001,0.0,0.0,0.0
11/11/2022,00:38:32,-0.000,0.0,0.0,0.0
11/11/2022,00:39:31,0.000,0.0,0.0,0.0
11/11/2022,00:40:32,0.001,0.0,0.0,0.0
11/11/2022,00:41:33,0.000,0.0,0.0,0.0
11/11/2022,00:42:31,0.000,0.0,0.0,0.0
11/11/2022,00:43:32,0.000,0.0,0.0,0.0
11/11/2022,00:44:32,0.000,0.0,0.0,0.0
11/11/2022,00:45:32,0.001,0.0,0.0,0.0
11/11/2022,00:46:32,0.000,0.0,0.0,0.0
11/11/2022,00:47:32,-0.000,0.0,0.0,0.0
11/11/2022,00:48:31,0.000,0.0,0.0,0.0
11/11/2022,00:49:32,0.000,0.0,0.0,0.0
11/11/2022,00:50:32,0.000,0.0,0.0,0.0
11/11/2022,00:51:32,-0.000,0.0,0.0,0.0
11/11/2022,00:52:31,-0.000,0.0,0.0,0.0
11/11/2022,00:53:31,-0.000,0.0,0.0,0.0
11/11/2022,00:54:31,0.001,0.0,0.0,0.0
11/11/2022,00:55:32,0.000,0.0,0.0,0.0
11/11/2022,00:56:32,-0.000,0.0,0.0,0.0
11/11/2022,00:57:32,0.000,0.0,0.0,0.0
11/11/2022,00:58:32,0.000,0.0,0.0,0.0
11/11/2022,00:59:32,0.000,0.0,0.0,0.0
11/11/2022,01:00:31,0.000,0.0,0.0,0.0
11/11/2022,01:01:32,0.000,0.0,0.0,0.0
11/11/2022,01:02:32,0.000,0.0,0.0,0.0
11/11/2022,01:03:32,0.001,0.0,0.0,0.0
11/11/2022,01:04:32,0.000,0.0,0.0,0.0
11/11/2022,01:05:31,-0.000,0.0,0.0,0.0
11/11/2022,01:06:32,0.000,0.0,0.0,0.0
11/11/2022,01:07:32,0.000,0.0,0.0,0.0
11/11/2022,01:08:32,0.000,0.0,0.0,0.0
11/11/2022,01:09:31,0.000,0.0,0.0,0.0
11/11/2022,01:10:32,0.000,0.0,0.0,0.0
11/11/2022,01:11:32,0.001,0.0,0.0,0.0
11/11/2022,01:12:32,0.001,0.0,0.0,0.0
11/11/2022,01:14:01,0.000,0.0,0.0,0.0
11/11/2022,01:15:32,0.000,0.0,0.0,0.0
11/11/2022,01:16:32,0.000,0.0,0.0,0.0
11/11/2022,01:17:32,0.000,0.0,0.0,0.0
11/11/2022,01:18:32,-0.000,0.0,0.0,0.0
11/11/2022,01:19:32,0.000,0.0,0.0,0.0
11/11/2022,01:20:32,0.000,0.0,0.0,0.0
11/11/2022,01:21:32,-0.000,0.0,0.0,0.0
11/11/2022,01:22:32,0.000,0.0,0.0,0.0
11/11/2022,01:23:32,0.000,0.0,0.0,0.0
11/11/2022,01:24:32,-0.000,0.0,0.0,0.0
11/11/2022,01:25:32,0.000,0.0,0.0,0.0
11/11/2022,01:26:32,-0.000,0.0,0.0,0.0
11/11/2022,01:27:32,0.000,0.0,0.0,0.0
11/11/2022,01:28:32,0.000,0.0,0.0,0.0
11/11/2022,01:29:32,-0.000,0.0,0.0,0.0
11/11/2022,01:30:31,-0.000,0.0,0.0,0.0
11/11/2022,01:31:31,-0.000,0.0,0.0,0.0
11/11/2022,01:32:32,0.000,0.0,0.0,0.0
11/11/2022,01:33:32,0.000,0.0,0.0,0.0
11/11/2022,01:34:32,0.000,0.0,0.0,0.0
11/11/2022,01:35:32,-0.000,0.0,0.0,0.0
11/11/2022,01:36:32,-0.000,0.0,0.0,0.0
11/11/2022,01:37:32,0.000,0.0,0.0,0.0
11/11/2022,01:38:32,0.000,0.0,0.0,0.0
11/11/2022,01:39:32,-0.000,0.0,0.0,0.0
11/11/2022,01:40:32,-0.000,0.0,0.0,0.0
11/11/2022,01:41:32,-0.000,0.0,0.0,0.0
11/11/2022,01:42:32,0.000,0.0,0.0,0.0
11/11/2022,01:43:32,-0.000,0.0,0.0,0.0
11/11/2022,01:44:32,0.000,0.0,0.0,0.0
11/11/2022,01:45:32,0.000,0.0,0.0,0.0
11/11/2022,01:46:32,-0.000,0.0,0.0,0.0
11/11/2022,01:47:32,0.001,0.0,0.0,0.0
11/11/2022,01:48:32,0.000,0.0,0.0,0.0
11/11/2022,01:49:32,-0.000,0.0,0.0,0.0
11/11/2022,01:50:32,-0.000,0.0,0.0,0.0
11/11/2022,01:51:32,0.000,0.0,0.0,0.0
11/11/2022,01:52:32,0.000,0.0,0.0,0.0
11/11/2022,01:53:32,-0.000,0.0,0.0,0.0
11/11/2022,01:54:32,0.000,0.0,0.0,0.0
11/11/2022,01:55:32,0.000,0.0,0.0,0.0
11/11/2022,01:56:32,-0.000,0.0,0.0,0.0
11/11/2022,01:57:32,0.001,0.0,0.0,0.0
11/11/2022,01:58:32,-0.000,0.0,0.0,0.0
11/11/2022,01:59:32,0.000,0.0,0.0,0.0
11/11/2022,02:00:31,-0.000,0.0,0.0,0.0
11/11/2022,02:01:32,0.000,0.0,0.0,0.0
11/11/2022,02:02:32,-0.000,0.0,0.0,0.0
11/11/2022,02:03:32,-0.000,0.0,0.0,0.0
11/11/2022,02:04:32,-0.000,0.0,0.0,0.0
11/11/2022,02:05:32,-0.000,0.0,0.0,0.0
11/11/2022,02:06:32,0.000,0.0,0.0,0.0
11/11/2022,02:07:32,0.000,0.0,0.0,0.0
11/11/2022,02:08:32,-0.000,0.0,0.0,0.0
11/11/2022,02:09:32,-0.000,0.0,0.0,0.0
11/11/2022,02:10:32,0.000,0.0,0.0,0.0
11/11/2022,02:11:32,0.000,0.0,0.0,0.0
11/11/2022,02:12:32,-0.000,0.0,0.0,0.0
11/11/2022,02:13:32,-0.000,0.0,0.0,0.0
11/11/2022,02:14:32,0.000,0.0,0.0,0.0
11/11/2022,02:15:32,-0.000,0.0,0.0,0.0
11/11/2022,02:16:32,-0.000,0.0,0.0,0.0
11/11/2022,02:17:32,-0.000,0.0,0.0,0.0
11/11/2022,02:18:35,0.000,0.0,0.0,0.0
11/11/2022,02:19:33,-0.000,0.0,0.0,0.0
11/11/2022,02:20:32,0.000,0.0,0.0,0.0
11/11/2022,02:21:32,-0.000,0.0,0.0,0.0
11/11/2022,02:22:32,-0.000,0.0,0.0,0.0
11/11/2022,02:23:31,-0.000,0.0,0.0,0.0
11/11/2022,02:24:32,-0.000,0.0,0.0,0.0
11/11/2022,02:25:32,-0.000,0.0,0.0,0.0
11/11/2022,02:26:32,0.001,0.0,0.0,0.0
11/11/2022,02:27:32,0.000,0.0,0.0,0.0
11/11/2022,02:28:32,0.000,0.0,0.0,0.0
11/11/2022,02:29:32,-0.000,0.0,0.0,0.0
11/11/2022,02:30:32,0.001,0.0,0.0,0.0
11/11/2022,02:31:32,0.000,0.0,0.0,0.0
11/11/2022,02:32:32,-0.000,0.0,0.0,0.0
11/11/2022,02:33:32,0.000,0.0,0.0,0.0
11/11/2022,02:34:32,-0.000,0.0,0.0,0.0
11/11/2022,02:35:32,-0.000,0.0,0.0,0.0
11/11/2022,02:36:32,-0.000,0.0,0.0,0.0
11/11/2022,02:37:32,-0.000,0.0,0.0,0.0
11/11/2022,02:38:32,-0.000,0.0,0.0,0.0
11/11/2022,02:39:32,-0.000,0.0,0.0,0.0
11/11/2022,02:40:32,-0.000,0.0,0.0,0.0
11/11/2022,02:41:32,-0.000,0.0,0.0,0.0
11/11/2022,02:42:32,-0.000,0.0,0.0,0.0
11/11/2022,02:43:32,-0.000,0.0,0.0,0.0
11/11/2022,02:44:32,-0.000,0.0,0.0,0.0
11/11/2022,02:45:32,-0.000,0.0,0.0,0.0
11/11/2022,02:46:32,-0.000,0.0,0.0,0.0
11/11/2022,02:47:32,0.000,0.0,0.0,0.0
11/11/2022,02:48:32,0.000,0.0,0.0,0.0
11/11/2022,02:49:32,-0.000,0.0,0.0,0.0
11/11/2022,02:50:32,-0.000,0.0,0.0,0.0
11/11/2022,02:51:32,-0.000,0.0,0.0,0.0
11/11/2022,02:52:32,-0.000,0.0,0.0,0.0
11/11/2022,02:53:32,0.000,0.0,0.0,0.0
11/11/2022,02:54:32,-0.000,0.0,0.0,0.0
11/11/2022,02:55:32,0.000,0.0,0.0,0.0
11/11/2022,02:56:32,-0.000,0.0,0.0,0.0
11/11/2022,02:57:32,-0.000,0.0,0.0,0.0
11/11/2022,02:58:32,-0.000,0.0,0.0,0.0
11/11/2022,02:59:32,-0.000,0.0,0.0,0.0
11/11/2022,03:00:32,-0.000,0.0,0.0,0.0
11/11/2022,03:01:32,0.000,0.0,0.0,0.0
11/11/2022,03:03:01,0.000,0.0,0.0,0.0
11/11/2022,03:04:33,-0.000,0.0,0.0,0.0
11/11/2022,03:05:32,0.000,0.0,0.0,0.0
11/11/2022,03:06:32,0.000,0.0,0.0,0.0
11/11/2022,03:07:32,-0.000,0.0,0.0,0.0
11/11/2022,03:08:32,-0.000,0.0,0.0,0.0
11/11/2022,03:09:32,-0.000,0.0,0.0,0.0
11/11/2022,03:10:35,-0.000,0.0,0.0,0.0
11/11/2022,03:11:33,0.000,0.0,0.0,0.0
11/11/2022,03:12:32,-0.000,0.0,0.0,0.0
11/11/2022,03:13:32,-0.000,0.0,0.0,0.0
11/11/2022,03:14:32,-0.000,0.0,0.0,0.0
11/11/2022,03:15:32,-0.000,0.0,0.0,0.0
11/11/2022,03:16:32,-0.000,0.0,0.0,0.0
11/11/2022,03:17:32,-0.000,0.0,0.0,0.0
11/11/2022,03:18:32,-0.000,0.0,0.0,0.0
11/11/2022,03:19:32,-0.000,0.0,0.0,0.0
11/11/2022,03:20:32,0.000,0.0,0.0,0.0
11/11/2022,03:21:32,-0.000,0.0,0.0,0.0
11/11/2022,03:22:33,-0.000,0.0,0.0,0.0
11/11/2022,03:23:32,-0.000,0.0,0.0,0.0
11/11/2022,03:24:32,-0.000,0.0,0.0,0.0
11/11/2022,03:25:32,-0.000,0.0,0.0,0.0
11/11/2022,03:26:32,-0.001,0.0,0.0,0.0
11/11/2022,03:27:32,-0.000,0.0,0.0,0.0
11/11/2022,03:28:32,-0.000,0.0,0.0,0.0
11/11/2022,03:29:33,-0.000,0.0,0.0,0.0
11/11/2022,03:30:31,-0.000,0.0,0.0,0.0
11/11/2022,03:31:32,-0.000,0.0,0.0,0.0
11/11/2022,03:32:32,-0.000,0.0,0.0,0.0
11/11/2022,03:33:32,-0.000,0.0,0.0,0.0
11/11/2022,03:34:32,0.001,0.0,0.0,0.0
11/11/2022,03:35:32,0.000,0.0,0.0,0.0
11/11/2022,03:36:32,-0.000,0.0,0.0,0.0
11/11/2022,03:37:32,-0.000,0.0,0.0,0.0
11/11/2022,03:38:32,-0.000,0.0,0.0,0.0
11/11/2022,03:39:33,0.000,0.0,0.0,0.0
11/11/2022,03:40:32,-0.000,0.0,0.0,0.0
11/11/2022,03:41:32,-0.000,0.0,0.0,0.0
11/11/2022,03:42:32,0.000,0.0,0.0,0.0
11/11/2022,03:43:33,-0.000,0.0,0.0,0.0
11/11/2022,03:44:32,-0.000,0.0,0.0,0.0
11/11/2022,03:45:32,-0.000,0.0,0.0,0.0
11/11/2022,03:46:32,-0.000,0.0,0.0,0.0
11/11/2022,03:47:32,0.001,0.0,0.0,0.0
11/11/2022,03:48:32,-0.000,0.0,0.0,0.0
11/11/2022,03:49:32,-0.000,0.0,0.0,0.0
11/11/2022,03:50:32,-0.000,0.0,0.0,0.0
11/11/2022,03:51:32,-0.000,0.0,0.0,0.0
11/11/2022,03:52:32,-0.000,0.0,0.0,0.0
11/11/2022,03:53:32,-0.000,0.0,0.0,0.0
11/11/2022,03:54:32,-0.000,0.0,0.0,0.0
11/11/2022,03:55:32,-0.000,0.0,0.0,0.0
11/11/2022,03:56:32,-0.000,0.0,0.0,0.0
11/11/2022,03:57:32,-0.000,0.0,0.0,0.0
11/11/2022,03:58:32,0.000,0.0,0.0,0.0
11/11/2022,03:59:32,-0.000,0.0,0.0,0.0
11/11/2022,04:00:32,-0.000,0.0,0.0,0.0
11/11/2022,04:01:32,-0.000,0.0,0.0,0.0
11/11/2022,04:02:32,-0.000,0.0,0.0,0.0
11/11/2022,04:03:32,0.001,0.0,0.0,0.0
11/11/2022,04:04:32,-0.000,0.0,0.0,0.0
11/11/2022,04:05:32,-0.000,0.0,0.0,0.0
11/11/2022,04:06:32,-0.000,0.0,0.0,0.0
11/11/2022,04:07:32,-0.000,0.0,0.0,0.0
11/11/2022,04:08:32,-0.000,0.0,0.0,0.0
11/11/2022,04:09:32,0.001,0.0,0.0,0.0
11/11/2022,04:10:33,-0.000,0.0,0.0,0.0
11/11/2022,04:11:32,0.001,0.0,0.0,0.0
11/11/2022,04:12:32,-0.000,0.0,0.0,0.0
11/11/2022,04:13:32,-0.000,0.0,0.0,0.0
11/11/2022,04:14:32,-0.000,0.0,0.0,0.0
11/11/2022,04:15:32,-0.000,0.0,0.0,0.0
11/11/2022,04:16:32,0.001,0.0,0.0,0.0
11/11/2022,04:17:32,-0.000,0.0,0.0,0.0
11/11/2022,04:18:32,-0.000,0.0,0.0,0.0
11/11/2022,04:19:32,-0.000,0.0,0.0,0.0
11/11/2022,04:20:32,-0.000,0.0,0.0,0.0
11/11/2022,04:21:32,-0.000,0.0,0.0,0.0
11/11/2022,04:22:32,-0.000,0.0,0.0,0.0
11/11/2022,04:23:34,-0.000,0.0,0.0,0.0
11/11/2022,04:24:32,-0.000,0.0,0.0,0.0
11/11/2022,04:25:32,-0.000,0.0,0.0,0.0
11/11/2022,04:26:32,-0.000,0.0,0.0,0.0
11/11/2022,04:27:32,-0.000,0.0,0.0,0.0
11/11/2022,04:28:33,-0.000,0.0,0.0,0.0
11/11/2022,04:29:32,-0.000,0.0,0.0,0.0
11/11/2022,04:30:32,0.001,0.0,0.0,0.0
11/11/2022,04:31:32,-0.000,0.0,0.0,0.0
11/11/2022,04:32:32,-0.000,0.0,0.0,0.0
11/11/2022,04:33:33,-0.000,0.0,0.0,0.0
11/11/2022,04:34:32,-0.000,0.0,0.0,0.0
11/11/2022,04:35:32,0.001,0.0,0.0,0.0
11/11/2022,04:36:32,-0.000,0.0,0.0,0.0
11/11/2022,04:37:32,-0.000,0.0,0.0,0.0
11/11/2022,04:38:32,-0.000,0.0,0.0,0.0
11/11/2022,04:39:32,-0.000,0.0,0.0,0.0
11/11/2022,04:40:32,-0.000,0.0,0.0,0.0
11/11/2022,04:41:32,-0.000,0.0,0.0,0.0
11/11/2022,04:42:32,-0.000,0.0,0.0,0.0
11/11/2022,04:43:33,-0.000,0.0,0.0,0.0
11/11/2022,04:44:32,-0.000,0.0,0.0,0.0
11/11/2022,04:45:32,-0.000,0.0,0.0,0.0
11/11/2022,04:46:33,-0.000,0.0,0.0,0.0
11/11/2022,04:47:33,-0.000,0.0,0.0,0.0
11/11/2022,04:48:32,-0.000,0.0,0.0,0.0
11/11/2022,04:49:32,-0.000,0.0,0.0,0.0
11/11/2022,04:50:32,0.001,0.0,0.0,0.0
11/11/2022,04:51:32,-0.000,0.0,0.0,0.0
11/11/2022,04:52:32,-0.000,0.0,0.0,0.0
11/11/2022,04:53:32,0.000,0.0,0.0,0.0
11/11/2022,04:54:33,-0.000,0.0,0.0,0.0
11/11/2022,04:55:32,-0.000,0.0,0.0,0.0
11/11/2022,04:56:32,-0.000,0.0,0.0,0.0
11/11/2022,04:57:33,-0.000,0.0,0.0,0.0
11/11/2022,04:58:33,-0.000,0.0,0.0,0.0
11/11/2022,04:59:33,-0.000,0.0,0.0,0.0
11/11/2022,05:00:32,-0.000,0.0,0.0,0.0
11/11/2022,05:01:32,-0.000,0.0,0.0,0.0
11/11/2022,05:02:32,-0.000,0.0,0.0,0.0
11/11/2022,05:03:33,-0.000,0.0,0.0,0.0
11/11/2022,05:04:33,-0.000,0.0,0.0,0.0
11/11/2022,05:05:32,-0.000,0.0,0.0,0.0
11/11/2022,05:06:32,-0.000,0.0,0.0,0.0
11/11/2022,05:07:32,-0.000,0.0,0.0,0.0
11/11/2022,05:08:33,-0.000,0.0,0.0,0.0
11/11/2022,05:09:33,-0.000,0.0,0.0,0.0
11/11/2022,05:10:32,-0.000,0.0,0.0,0.0
11/11/2022,05:11:32,-0.000,0.0,0.0,0.0
11/11/2022,05:12:32,-0.001,0.0,0.0,0.0
11/11/2022,05:13:32,-0.000,0.0,0.0,0.0
11/11/2022,05:14:33,-0.000,0.0,0.0,0.0
11/11/2022,05:15:34,-0.000,0.0,0.0,0.0
11/11/2022,05:16:32,0.001,0.0,0.0,0.0
11/11/2022,05:17:32,-0.000,0.0,0.0,0.0
11/11/2022,05:18:32,-0.000,0.0,0.0,0.0
11/11/2022,05:19:32,-0.000,0.0,0.0,0.0
11/11/2022,05:20:32,-0.000,0.0,0.0,0.0
11/11/2022,05:21:33,-0.000,0.0,0.0,0.0
11/11/2022,05:22:32,-0.000,0.0,0.0,0.0
11/11/2022,05:23:32,-0.000,0.0,0.0,0.0
11/11/2022,05:24:32,0.001,0.0,0.0,0.0
11/11/2022,05:25:32,-0.000,0.0,0.0,0.0
11/11/2022,05:26:33,0.001,0.0,0.0,0.0
11/11/2022,05:27:32,0.000,0.0,0.0,0.0
11/11/2022,05:28:32,-0.000,0.0,0.0,0.0
11/11/2022,05:29:33,-0.000,0.0,0.0,0.0
11/11/2022,05:30:32,-0.000,0.0,0.0,0.0
11/11/2022,05:31:32,0.000,0.0,0.0,0.0
11/11/2022,05:32:32,0.000,0.0,0.0,0.0
11/11/2022,05:33:32,-0.000,0.0,0.0,0.0
11/11/2022,05:34:32,0.000,0.0,0.0,0.0
11/11/2022,05:35:33,-0.000,0.0,0.0,0.0
11/11/2022,05:36:32,-0.000,0.0,0.0,0.0
11/11/2022,05:37:33,-0.000,0.0,0.0,0.0
11/11/2022,05:38:36,0.000,0.0,0.0,0.0
11/11/2022,05:39:33,-0.000,0.0,0.0,0.0
11/11/2022,05:40:32,-0.000,0.0,0.0,0.0
11/11/2022,05:41:32,-0.000,0.0,0.0,0.0
11/11/2022,05:42:32,-0.000,0.0,0.0,0.0
11/11/2022,05:43:32,-0.000,0.0,0.0,0.0
11/11/2022,05:44:32,-0.000,0.0,0.0,0.0
11/11/2022,05:45:32,-0.000,0.0,0.0,0.0
11/11/2022,05:46:32,-0.000,0.0,0.0,0.0
11/11/2022,05:47:32,-0.000,0.0,0.0,0.0
11/11/2022,05:48:33,-0.000,0.0,0.0,0.0
11/11/2022,05:49:33,-0.000,0.0,0.0,0.0
11/11/2022,05:50:32,-0.000,0.0,0.0,0.0
11/11/2022,05:51:32,-0.000,0.0,0.0,0.0
11/11/2022,05:52:32,-0.000,0.0,0.0,0.0
11/11/2022,05:53:33,-0.000,0.0,0.0,0.0
11/11/2022,05:54:32,-0.000,0.0,0.0,0.0
11/11/2022,05:55:32,-0.001,0.0,0.0,0.0
11/11/2022,05:56:33,-0.000,0.0,0.0,0.0
11/11/2022,05:57:32,-0.000,0.0,0.0,0.0
11/11/2022,05:58:32,-0.000,0.0,0.0,0.0
11/11/2022,05:59:33,-0.000,0.0,0.0,0.0
11/11/2022,06:00:32,-0.000,0.0,0.0,0.0
11/11/2022,06:01:32,-0.000,0.0,0.0,0.0
11/11/2022,06:02:32,-0.000,0.0,0.0,0.0
11/11/2022,06:03:33,-0.000,0.0,0.0,0.0
11/11/2022,06:04:32,-0.001,0.0,0.0,0.0
11/11/2022,06:05:32,-0.000,0.0,0.0,0.0
11/11/2022,06:06:32,-0.000,0.0,0.0,0.0
11/11/2022,06:07:32,0.001,0.0,0.0,0.0
11/11/2022,06:08:33,-0.000,0.0,0.0,0.0
11/11/2022,06:09:32,-0.000,0.0,0.0,0.0
11/11/2022,06:10:32,-0.000,0.0,0.0,0.0
11/11/2022,06:11:32,-0.000,0.0,0.0,0.0
11/11/2022,06:12:32,-0.000,0.0,0.0,0.0
11/11/2022,06:13:33,-0.000,0.0,0.0,0.0
11/11/2022,06:14:32,-0.000,0.0,0.0,0.0
11/11/2022,06:15:32,-0.000,0.0,0.0,0.0
11/11/2022,06:16:32,-0.000,0.0,0.0,0.0
11/11/2022,06:17:33,-0.000,0.0,0.0,0.0
11/11/2022,06:18:33,-0.000,0.0,0.0,0.0
11/11/2022,06:19:32,0.000,0.0,0.0,0.0
11/11/2022,06:20:32,-0.000,0.0,0.0,0.0
11/11/2022,06:21:32,0.000,0.0,0.0,0.0
11/11/2022,06:22:32,-0.000,0.0,0.0,0.0
11/11/2022,06:23:32,-0.000,0.0,0.0,0.0
11/11/2022,06:24:32,0.000,0.0,0.0,0.0
11/11/2022,06:25:33,-0.000,0.0,0.0,0.0
11/11/2022,06:26:33,-0.000,0.0,0.0,0.0
11/11/2022,06:27:32,-0.000,0.0,0.0,0.0
11/11/2022,06:28:32,-0.000,0.0,0.0,0.0
11/11/2022,06:29:32,-0.000,0.0,0.0,0.0
11/11/2022,06:30:32,0.000,0.0,0.0,0.0
11/11/2022,06:31:32,-0.000,0.0,0.0,0.0
11/11/2022,06:32:33,0.000,0.0,0.0,0.0
11/11/2022,06:33:32,-0.000,0.0,0.0,0.0
11/11/2022,06:34:32,-0.000,0.0,0.0,0.0
11/11/2022,06:35:32,-0.000,0.0,0.0,0.0
11/11/2022,06:36:33,-0.000,0.0,0.0,0.0
11/11/2022,06:37:36,-0.000,0.0,0.0,0.0
11/11/2022,06:38:33,-0.000,0.0,0.0,0.0
11/11/2022,06:39:32,-0.000,0.0,0.0,0.0
11/11/2022,06:40:32,-0.000,0.0,0.0,0.0
11/11/2022,06:41:32,-0.000,0.0,0.0,0.0
11/11/2022,06:42:32,-0.000,0.0,0.0,0.0
11/11/2022,06:43:33,-0.000,0.0,0.0,0.0
11/11/2022,06:44:33,0.000,0.0,0.0,0.0
11/11/2022,06:45:32,-0.000,0.0,0.0,0.0
11/11/2022,06:46:32,-0.000,0.0,0.0,0.0
11/11/2022,06:47:32,-0.000,0.0,0.0,0.0
11/11/2022,06:48:33,0.000,0.0,0.0,0.0
11/11/2022,06:49:33,0.000,0.0,0.0,0.0
11/11/2022,06:50:33,0.001,0.0,0.0,0.0
11/11/2022,06:51:32,0.000,0.0,0.0,0.0
11/11/2022,06:52:32,0.000,0.0,0.0,0.0
11/11/2022,06:53:32,0.000,0.0,0.0,0.0
11/11/2022,06:54:32,0.000,0.0,0.0,0.0
11/11/2022,06:55:32,0.000,0.0,0.0,0.0
11/11/2022,06:56:32,0.000,0.0,0.0,0.0
11/11/2022,06:57:33,-0.000,0.0,0.0,0.0
11/11/2022,06:58:32,-0.000,0.0,0.0,0.0
11/11/2022,06:59:32,0.000,0.0,0.0,0.0
11/11/2022,07:00:33,0.000,0.0,0.0,0.0
11/11/2022,07:01:32,0.000,0.0,0.0,0.0
11/11/2022,07:02:32,-0.000,0.0,0.0,0.0
11/11/2022,07:03:32,0.000,0.0,0.0,0.0
11/11/2022,07:04:32,0.000,0.0,0.0,0.0
11/11/2022,07:05:32,0.000,0.0,0.0,0.0
11/11/2022,07:06:33,0.000,0.0,0.0,0.0
11/11/2022,07:07:32,0.000,0.0,0.0,0.0
11/11/2022,07:08:32,0.000,0.0,0.0,0.0
11/11/2022,07:09:33,0.000,0.0,0.0,0.0
11/11/2022,07:10:33,-0.000,0.0,0.0,0.0
11/11/2022,07:11:32,0.001,0.0,0.0,0.0
11/11/2022,07:12:33,0.001,0.0,0.0,0.0
11/11/2022,07:13:32,0.001,0.0,0.0,0.0
11/11/2022,07:14:33,-0.000,0.0,0.0,0.0
11/11/2022,07:15:33,-0.000,0.0,0.0,0.0
11/11/2022,07:16:32,0.000,0.0,0.0,0.0
11/11/2022,07:17:33,0.000,0.0,0.0,0.0
11/11/2022,07:18:32,0.000,0.0,0.0,0.0
11/11/2022,07:19:32,0.001,0.0,0.0,0.0
11/11/2022,07:20:32,0.002,0.0,0.0,0.0
11/11/2022,07:21:32,0.001,0.0,0.0,0.0
11/11/2022,07:22:32,0.001,0.0,0.0,0.0
11/11/2022,07:23:33,-0.000,0.0,0.0,0.0
11/11/2022,07:24:32,0.001,0.0,0.0,0.0
11/11/2022,07:25:33,0.000,0.0,0.0,0.0
11/11/2022,07:26:32,0.001,0.0,0.0,0.0
11/11/2022,07:27:33,0.002,0.0,0.0,0.0
11/11/2022,07:28:32,0.000,0.0,0.0,0.0
11/11/2022,07:29:33,0.001,0.0,0.0,0.0
11/11/2022,07:30:33,0.002,0.0,0.0,0.0
11/11/2022,07:31:33,0.002,0.0,0.0,0.0
11/11/2022,07:32:33,0.001,0.0,0.0,0.0
11/11/2022,07:33:32,0.001,0.0,0.0,0.0
11/11/2022,07:34:32,0.001,0.0,0.0,0.0
11/11/2022,07:35:33,0.002,0.0,0.0,0.0
11/11/2022,07:36:32,0.002,0.0,0.0,0.0
11/11/2022,07:37:32,0.002,0.0,0.0,0.0
11/11/2022,07:38:32,0.002,0.0,0.0,0.0
11/11/2022,07:39:32,0.003,0.0,0.0,0.0
11/11/2022,07:40:32,0.001,0.0,0.0,0.0
11/11/2022,07:41:32,0.002,0.0,0.0,0.0
11/11/2022,07:42:33,0.003,0.0,0.0,0.0
11/11/2022,07:43:32,0.001,0.0,0.0,0.0
11/11/2022,07:44:32,0.003,0.0,0.0,0.0
11/11/2022,07:45:32,0.002,0.0,0.0,0.0
11/11/2022,07:46:33,0.004,0.0,0.0,0.0
11/11/2022,07:47:33,0.004,0.0,0.0,0.0
11/11/2022,07:48:33,0.002,0.0,0.0,0.0
11/11/2022,07:49:32,0.004,0.0,0.0,0.0
11/11/2022,07:50:33,0.004,0.0,0.0,0.0
11/11/2022,07:51:33,0.005,0.0,0.0,0.0
11/11/2022,07:52:33,0.004,0.0,0.0,0.0
11/11/2022,07:53:32,0.005,0.0,0.0,0.0
11/11/2022,07:54:32,0.005,0.0,0.0,0.0
11/11/2022,07:55:32,0.005,0.0,0.0,0.0
11/11/2022,07:56:33,0.006,0.0,0.0,0.0
11/11/2022,07:57:33,0.006,0.0,0.0,0.0
11/11/2022,07:58:32,0.006,0.0,0.0,0.0
11/11/2022,07:59:32,0.007,0.0,0.0,0.0
11/11/2022,08:00:32,0.006,0.0,0.0,0.0
11/11/2022,08:01:32,0.007,0.0,0.0,0.0
11/11/2022,08:02:32,0.008,0.0,0.0,0.0
11/11/2022,08:03:33,0.009,0.0,0.001,0.001
11/11/2022,08:04:33,0.009,0.0,0.001,0.0
11/11/2022,08:05:33,0.009,0.0,0.001,0.0
11/11/2022,08:06:32,0.009,0.0,0.001,0.0
11/11/2022,08:07:32,0.009,0.0,0.001,0.0
11/11/2022,08:08:32,0.008,0.0,0.001,0.0
11/11/2022,08:09:32,0.010,0.0,0.001,0.0
11/11/2022,08:10:33,0.009,0.0,0.002,0.001
11/11/2022,08:11:33,0.010,0.0,0.002,0.0
11/11/2022,08:12:33,0.010,0.0,0.002,0.0
11/11/2022,08:13:32,0.012,0.0,0.002,0.0
11/11/2022,08:14:32,0.012,0.0,0.002,0.0
11/11/2022,08:15:33,0.013,0.0,0.002,0.0
11/11/2022,08:16:33,0.013,0.0,0.003,0.001
11/11/2022,08:17:33,0.012,0.0,0.003,0.0
11/11/2022,08:18:33,0.012,0.0,0.003,0.0
11/11/2022,08:19:33,0.013,0.0,0.003,0.0
11/11/2022,08:20:33,0.013,0.0,0.004,0.001
11/11/2022,08:21:32,0.014,0.0,0.004,0.0
11/11/2022,08:22:32,0.015,0.0,0.004,0.0
11/11/2022,08:23:32,0.014,0.0,0.004,0.0
11/11/2022,08:24:32,0.014,0.0,0.004,0.0
11/11/2022,08:25:32,0.014,0.0,0.005,0.001
11/11/2022,08:26:32,0.014,0.0,0.005,0.0
11/11/2022,08:27:32,0.014,0.0,0.005,0.0
11/11/2022,08:28:33,0.016,0.0,0.005,0.0
11/11/2022,08:29:32,0.015,0.0,0.006,0.001
11/11/2022,08:30:32,0.015,0.0,0.006,0.0
11/11/2022,08:31:33,0.016,0.0,0.006,0.0
11/11/2022,08:32:33,0.015,0.0,0.006,0.0
11/11/2022,08:33:33,0.016,0.0,0.007,0.001
11/11/2022,08:34:32,0.016,0.0,0.007,0.0
11/11/2022,08:35:32,0.017,0.0,0.007,0.0
11/11/2022,08:36:33,0.019,0.0,0.008,0.001
11/11/2022,08:37:32,0.018,0.0,0.008,0.0
11/11/2022,08:38:33,0.020,0.0,0.008,0.0
11/11/2022,08:39:33,0.020,0.0,0.008,0.0
11/11/2022,08:40:33,0.018,0.0,0.009,0.001
11/11/2022,08:41:33,0.018,0.0,0.009,0.0
11/11/2022,08:42:33,0.019,0.0,0.009,0.0
11/11/2022,08:43:32,0.018,0.0,0.01,0.001
11/11/2022,08:44:32,0.020,0.0,0.01,0.0
11/11/2022,08:45:32,0.021,0.0,0.01,0.0
11/11/2022,08:46:33,0.022,0.0,0.011,0.001
11/11/2022,08:47:33,0.019,0.0,0.011,0.0
11/11/2022,08:48:33,0.021,0.0,0.011,0.0
11/11/2022,08:49:32,0.023,0.0,0.012,0.001
11/11/2022,08:50:33,0.022,0.0,0.012,0.0
11/11/2022,08:51:33,0.021,0.0,0.013,0.001
11/11/2022,08:52:32,0.023,0.0,0.013,0.0
11/11/2022,08:53:33,0.024,0.0,0.013,0.0
11/11/2022,08:54:33,0.021,0.0,0.014,0.001
11/11/2022,08:55:32,0.025,0.0,0.014,0.0
11/11/2022,08:56:33,0.025,0.0,0.014,0.0
11/11/2022,08:57:33,0.026,0.0,0.015,0.001
11/11/2022,08:58:33,0.027,0.0,0.015,0.0
11/11/2022,08:59:32,0.029,0.0,0.016,0.001
11/11/2022,09:00:32,0.030,0.0,0.016,0.0
11/11/2022,09:01:32,0.028,0.0,0.017,0.001
11/11/2022,09:02:33,0.027,0.0,0.017,0.0
11/11/2022,09:03:32,0.029,0.0,0.018,0.001
11/11/2022,09:04:33,0.033,0.0,0.018,0.0
11/11/2022,09:05:32,0.036,0.0,0.019,0.001
11/11/2022,09:06:33,0.037,0.0,0.019,0.0
11/11/2022,09:07:33,0.041,0.0,0.02,0.001
11/11/2022,09:08:33,0.043,0.0,0.021,0.001
11/11/2022,09:09:33,0.043,0.0,0.022,0.001
11/11/2022,09:10:32,0.041,0.0,0.022,0.0
11/11/2022,09:11:33,0.045,0.0,0.023,0.001
11/11/2022,09:12:33,0.047,0.0,0.024,0.001
11/11/2022,09:13:32,0.048,0.0,0.024,0.0
11/11/2022,09:14:32,0.049,0.0,0.025,0.001
11/11/2022,09:15:32,0.050,0.0,0.026,0.001
11/11/2022,09:16:32,0.050,0.0,0.027,0.001
11/11/2022,09:17:33,0.050,0.0,0.028,0.001
11/11/2022,09:18:33,0.052,0.0,0.029,0.001
11/11/2022,09:19:32,0.052,0.0,0.03,0.001
11/11/2022,09:20:33,0.053,0.0,0.03,0.0
11/11/2022,09:21:33,0.056,0.0,0.031,0.001
11/11/2022,09:22:33,0.054,0.0,0.032,0.001
11/11/2022,09:23:33,0.058,0.0,0.033,0.001
11/11/2022,09:24:32,0.061,0.0,0.034,0.001
11/11/2022,09:25:32,0.061,0.0,0.035,0.001
11/11/2022,09:26:32,0.056,0.0,0.036,0.001
11/11/2022,09:27:32,0.055,0.0,0.037,0.001
11/11/2022,09:28:33,0.050,0.0,0.038,0.001
11/11/2022,09:29:33,0.050,0.0,0.039,0.001
11/11/2022,09:30:33,0.051,0.0,0.04,0.001
11/11/2022,09:31:32,0.051,0.0,0.04,0.0
11/11/2022,09:32:32,0.054,0.0,0.041,0.001
11/11/2022,09:34:02,0.061,0.0,0.043,0.002
11/11/2022,09:35:33,0.067,0.0,0.044,0.001
11/11/2022,09:36:33,0.066,0.0,0.045,0.001
11/11/2022,09:37:32,0.065,0.0,0.047,0.002
11/11/2022,09:38:32,0.063,0.0,0.048,0.001
11/11/2022,09:39:33,0.064,0.0,0.049,0.001
11/11/2022,09:40:32,0.058,0.0,0.05,0.001
11/11/2022,09:41:32,0.057,0.0,0.051,0.001
11/11/2022,09:42:32,0.054,0.0,0.052,0.001
11/11/2022,09:43:33,0.050,0.0,0.052,0.0
11/11/2022,09:44:33,0.048,0.0,0.053,0.001
11/11/2022,09:45:33,0.050,0.0,0.054,0.001
11/11/2022,09:46:33,0.058,0.0,0.055,0.001
11/11/2022,09:47:32,0.059,0.0,0.056,0.001
11/11/2022,09:48:32,0.058,0.0,0.057,0.001
11/11/2022,09:49:33,0.056,0.0,0.058,0.001
11/11/2022,09:50:33,0.054,0.0,0.059,0.001
11/11/2022,09:51:32,0.051,0.0,0.06,0.001
11/11/2022,09:52:33,0.055,0.0,0.061,0.001
11/11/2022,09:53:33,0.063,0.0,0.062,0.001
11/11/2022,09:54:33,0.065,0.0,0.063,0.001
11/11/2022,09:55:33,0.065,0.0,0.064,0.001
11/11/2022,09:56:32,0.064,0.0,0.065,0.001
11/11/2022,09:57:33,0.061,0.0,0.066,0.001
11/11/2022,09:58:32,0.061,0.0,0.067,0.001
11/11/2022,09:59:33,0.065,0.0,0.068,0.001
11/11/2022,10:00:32,0.066,0.0,0.069,0.001
11/11/2022,10:01:33,0.068,0.0,0.07,0.001
11/11/2022,10:02:33,0.067,0.0,0.071,0.001
11/11/2022,10:03:32,0.068,0.0,0.072,0.001
11/11/2022,10:04:33,0.064,0.0,0.073,0.001
11/11/2022,10:05:33,0.064,0.0,0.075,0.002
11/11/2022,10:06:32,0.070,0.0,0.076,0.001
11/11/2022,10:07:32,0.077,0.0,0.077,0.001
11/11/2022,10:08:33,0.076,0.0,0.078,0.001
11/11/2022,10:09:33,0.077,0.0,0.079,0.001
11/11/2022,10:10:33,0.076,0.0,0.081,0.002
11/11/2022,10:11:32,0.070,0.0,0.082,0.001
11/11/2022,10:12:33,0.074,0.0,0.083,0.001
11/11/2022,10:13:33,0.072,0.0,0.084,0.001
11/11/2022,10:14:33,0.071,0.0,0.086,0.002
11/11/2022,10:15:33,0.076,0.0,0.087,0.001